BEIDOU-3 IGSO-2

Last updated on Sun Oct 06 2024 00:02:41 GMT+0000 (Coordinated Universal Time)

1 44337U 19035A 24279.58491278 -.00000099 00000+0 00000+0 0 9994 2 44337 55.1815 164.3030 0034602 201.9903 337.5309 1.00263072 19454
UTC large
Height (km)
Speed (km/s)
/
Latitude / Longitude
Inclination (degrees)
Orbital Period (minutes)
Azimuth
Elevation
Range (km)
Doppler Factor

Next 0 passes for location: London (51.5072 / 0.1276)

Sorry there are no passes over London.